| time (UTC) | temp F | wind direction | speed MPH | gust MPH | rain 1hr in | rain 24hr in | rain mn in | humidity % | barometer mb |
| 20260506174241 | 69 | 145 | 0.0 | 0.0 | 0.00 | 0.00 | 0.00 | 100 | 1001.0 |
| 20260506173241 | 71 | 153 | 0.0 | 0.0 | 0.00 | 0.00 | 0.00 | 100 | 1000.8 |
| 20260506172241 | 71 | 128 | 0.0 | 0.0 | 0.00 | 0.00 | 0.00 | 100 | 1000.9 |
| 20260506171240 | 71 | 181 | 0.0 | 0.0 | 0.00 | 0.00 | 0.00 | 100 | 1000.8 |
| 20260506170240 | 71 | 148 | 0.0 | 0.0 | 0.00 | 0.00 | 0.00 | 100 | 1000.6 |
| 20260506165240 | 71 | 156 | 0.0 | 0.0 | 0.00 | 0.00 | 0.00 | 100 | 1000.6 |
| 20260506164240 | 71 | 154 | 0.0 | 0.0 | 0.00 | 0.00 | 0.00 | 100 | 1000.5 |
| 20260506163240 | 72 | 166 | 0.0 | 0.0 | 0.00 | 0.00 | 0.00 | 100 | 1000.6 |
| 20260506162210 | 72 | 153 | 0.0 | 0.0 | 0.00 | 0.00 | 0.00 | 100 | 1000.6 |
| 20260506161210 | 72 | 147 | 0.0 | 0.0 | 0.00 | 0.00 | 0.00 | 100 | 999.8 |
| 20260506160210 | 72 | 180 | 0.0 | 0.0 | 0.00 | 0.00 | 0.00 | 100 | 1000.6 |
| 20260506155140 | 67 | 192 | 0.0 | 0.0 | 0.00 | 0.00 | 0.00 | 100 | 1000.6 |
| 20260506154140 | 73 | 156 | 0.0 | 0.0 | 0.00 | 0.00 | 0.00 | 100 | 999.3 |
| 20260506153109 | 73 | 149 | 0.0 | 0.0 | 0.00 | 0.00 | 0.00 | 100 | 1000.7 |
| 20260506152109 | 73 | 161 | 0.0 | 0.0 | 0.00 | 0.00 | 0.00 | 100 | 1000.7 |
| 20260506151109 | 73 | 186 | 0.0 | 0.0 | 0.00 | 0.00 | 0.00 | 100 | 1000.8 |
| 20260506150039 | 73 | 188 | 0.0 | 0.0 | 0.00 | 0.00 | 0.00 | 100 | 1000.9 |
| 20260506145039 | 73 | 167 | 0.0 | 0.0 | 0.00 | 0.00 | 0.00 | 100 | 1001.0 |
| 20260506144039 | 73 | 155 | 0.0 | 0.0 | 0.00 | 0.00 | 0.00 | 100 | 1001.1 |
| 20260506143039 | 73 | 133 | 0.0 | 0.0 | 0.00 | 0.00 | 0.00 | 100 | 1001.1 |
| 20260506142039 | 73 | 147 | 0.0 | 0.0 | 0.00 | 0.00 | 0.00 | 100 | 1001.3 |
| 20260506141039 | 73 | 139 | 0.0 | 0.0 | 0.00 | 0.00 | 0.00 | 100 | 1001.3 |
| 20260506140039 | 71 | 144 | 0.0 | 0.0 | 0.00 | 0.00 | 0.00 | 100 | 997.3 |
| 20260506135039 | 72 | 205 | 0.0 | 0.0 | 0.00 | 0.00 | 0.00 | 100 | 1001.6 |
| 20260506134008 | 68 | 147 | 0.0 | 0.0 | 0.00 | 0.00 | 0.00 | 100 | 986.9 |
| 20260506133008 | 76 | 173 | 0.0 | 0.0 | 0.00 | 0.00 | 0.00 | 100 | 1010.2 |
| 20260506132008 | 71 | 186 | 0.0 | 0.0 | 0.00 | 0.00 | 0.00 | 100 | 1001.8 |
| 20260506131008 | 71 | 181 | 0.0 | 0.0 | 0.00 | 0.00 | 0.00 | 100 | 1002.0 |
| 20260506130008 | 71 | 172 | 0.0 | 0.0 | 0.00 | 0.00 | 0.00 | 100 | 1002.1 |
| 20260506124938 | 70 | 207 | 0.0 | 0.0 | 0.00 | 0.00 | 0.00 | 100 | 1002.1 |
| 20260506123938 | 71 | 194 | 0.0 | 0.0 | 0.00 | 0.00 | 0.00 | 100 | 1002.2 |
| 20260506122938 | 71 | 217 | 0.0 | 0.0 | 0.00 | 0.00 | 0.00 | 100 | 1002.2 |
| 20260506121938 | 70 | 211 | 0.0 | 0.0 | 0.00 | 0.00 | 0.00 | 100 | 1002.3 |
| 20260506120938 | 70 | 137 | 0.0 | 0.0 | 0.00 | 0.00 | 0.00 | 100 | 1002.5 |
| 20260506115938 | 67 | 164 | 0.0 | 0.0 | 0.00 | 0.00 | 0.00 | 100 | 1002.5 |
| 20260506114907 | 70 | 200 | 0.0 | 0.0 | 0.00 | 0.00 | 0.00 | 100 | 1155.5 |
| 20260506113907 | 69 | 138 | 0.0 | 0.0 | 0.00 | 0.00 | 0.00 | 100 | 1002.6 |
| 20260506112907 | 68 | 153 | 0.0 | 0.0 | 0.00 | 0.00 | 0.00 | 100 | 1002.7 |
| 20260506111907 | 68 | 205 | 0.0 | 0.0 | 0.00 | 0.00 | 0.00 | 100 | 1002.7 |
| 20260506110837 | 68 | 176 | 0.0 | 0.0 | 0.00 | 0.00 | 0.00 | 100 | 1002.9 |
| 20260506105837 | 68 | 170 | 0.0 | 0.0 | 0.00 | 0.00 | 0.00 | 100 | 1002.8 |
| 20260506104807 | 68 | 136 | 0.0 | 0.0 | 0.00 | 0.00 | 0.00 | 100 | 1002.9 |
| 20260506103807 | 67 | 134 | 0.0 | 0.0 | 0.00 | 0.00 | 0.00 | 100 | 1002.9 |
| 20260506102807 | 67 | 161 | 0.0 | 0.0 | 0.00 | 0.00 | 0.00 | 100 | 1003.0 |
| 20260506101807 | 67 | 182 | 0.0 | 0.0 | 0.00 | 0.00 | 0.00 | 100 | 1003.0 |
| 20260506100807 | 67 | 155 | 0.0 | 0.0 | 0.00 | 0.00 | 0.00 | 100 | 1003.0 |
| 20260506095806 | 67 | 157 | 0.0 | 0.0 | 0.00 | 0.00 | 0.00 | 100 | 1003.1 |
| 20260506094806 | 66 | 335 | 0.0 | 0.0 | 0.00 | 0.00 | 0.00 | 100 | 1003.3 |
| 20260506093806 | 65 | 0 | 0.0 | 0.0 | 0.00 | 0.00 | 0.00 | 100 | 1003.3 |
| 20260506092806 | 65 | 356 | 0.0 | 0.0 | 0.00 | 0.00 | 0.00 | 100 | 1003.4 |
| 20260506091806 | 64 | 335 | 0.0 | 0.0 | 0.00 | 0.00 | 0.00 | 100 | 1003.3 |
| 20260506090806 | 64 | 291 | 0.0 | 0.0 | 0.00 | 0.00 | 0.00 | 100 | 1003.3 |
| 20260506085806 | 64 | 296 | 0.0 | 0.0 | 0.00 | 0.00 | 0.00 | 100 | 1003.2 |
| 20260506084806 | 64 | 356 | 0.0 | 0.0 | 0.00 | 0.00 | 0.00 | 100 | 1003.1 |
| 20260506083806 | 63 | 280 | 0.0 | 0.0 | 0.00 | 0.00 | 0.00 | 100 | 1003.3 |
| 20260506082806 | 63 | 324 | 0.0 | 0.0 | 0.00 | 0.00 | 0.00 | 100 | 1003.1 |
| 20260506081736 | 62 | 287 | 0.0 | 0.0 | 0.00 | 0.00 | 0.00 | 100 | 1003.2 |
| 20260506080736 | 62 | 341 | 0.0 | 0.0 | 0.00 | 0.00 | 0.00 | 100 | 1003.2 |
| 20260506072705 | 60 | 1 | 0.0 | 0.0 | 0.00 | 0.00 | 0.00 | 100 | 1109.4 |
| 20260506071635 | 60 | 2 | 0.0 | 0.0 | 0.00 | 0.00 | 0.00 | 100 | 1003.1 |
| 20260506070635 | 59 | 7 | 0.0 | 0.0 | 0.00 | 0.00 | 0.00 | 100 | 1003.1 |
| 20260506061631 | 57 | 358 | 0.0 | 0.0 | 0.00 | 0.00 | 0.00 | 100 | 1002.8 |
| 20260506060631 | 57 | 351 | 0.0 | 0.0 | 0.00 | 0.00 | 0.00 | 100 | 1002.6 |
| 20260506050530 | 55 | 330 | 0.0 | 0.0 | 0.00 | 0.00 | 0.00 | 100 | 1002.3 |
| 20260506044500 | 55 | 5 | 0.0 | 0.0 | 0.00 | 0.00 | 0.00 | 100 | 1002.3 |
| 20260506043500 | 56 | 1 | 0.0 | 0.0 | 0.00 | 0.00 | 0.00 | 100 | 1002.1 |
| 20260506042500 | 55 | 310 | 0.0 | 0.0 | 0.00 | 0.00 | 0.00 | 100 | 1002.4 |
| 20260506041430 | 56 | 12 | 0.0 | 0.0 | 0.00 | 0.00 | 0.00 | 100 | 1002.1 |
| 20260506040430 | 56 | 24 | 0.0 | 0.0 | 0.00 | 0.00 | 0.00 | 100 | 1002.1 |
| 20260506035400 | 55 | 36 | 0.0 | 0.0 | 0.00 | 0.00 | 0.00 | 100 | 1002.2 |
| 20260506034359 | 55 | 7 | 0.0 | 0.0 | 0.00 | 0.00 | 0.00 | 100 | 1002.1 |
| 20260506033359 | 56 | 9 | 0.0 | 0.0 | 0.00 | 0.00 | 0.00 | 100 | 1002.1 |
| 20260506032329 | 56 | 18 | 0.0 | 0.0 | 0.00 | 0.00 | 0.00 | 100 | 1001.9 |
| 20260506031329 | 57 | 356 | 0.0 | 0.0 | 0.00 | 0.00 | 0.00 | 100 | 1001.8 |
| 20260506030317 | 56 | 4 | 0.0 | 0.0 | 0.00 | 0.00 | 0.00 | 100 | 1001.8 |
| 20260506025317 | 56 | 354 | 0.0 | 0.0 | 0.00 | 0.00 | 0.00 | 100 | 1001.7 |
| 20260506024316 | 56 | 11 | 0.0 | 0.0 | 0.00 | 0.00 | 0.00 | 100 | 1001.6 |
| 20260506023316 | 56 | 6 | 0.0 | 0.0 | 0.00 | 0.00 | 0.00 | 100 | 1001.6 |
| 20260506022246 | 56 | 24 | 0.0 | 0.0 | 0.00 | 0.00 | 0.00 | 100 | 1001.4 |
| 20260506021246 | 56 | 4 | 0.0 | 0.0 | 0.00 | 0.00 | 0.00 | 100 | 1001.3 |
| 20260506020216 | 57 | 26 | 0.0 | 0.0 | 0.00 | 0.00 | 0.00 | 100 | 1001.2 |
| 20260506015216 | 58 | 344 | 0.0 | 0.0 | 0.00 | 0.00 | 0.00 | 100 | 1001.2 |
| 20260506014216 | 58 | 326 | 0.0 | 0.0 | 0.00 | 0.00 | 0.00 | 100 | 1001.1 |
| 20260506013216 | 58 | 356 | 0.0 | 0.0 | 0.00 | 0.00 | 0.00 | 100 | 1000.9 |
| 20260506012216 | 57 | 325 | 0.0 | 0.0 | 0.00 | 0.00 | 0.00 | 100 | 1001.1 |
| 20260506011146 | 56 | 43 | 0.0 | 0.0 | 0.00 | 0.00 | 0.00 | 100 | 1001.2 |
| 20260506010145 | 56 | 44 | 0.0 | 0.0 | 0.00 | 0.00 | 0.00 | 100 | 1001.2 |
| 20260506005115 | 56 | 16 | 0.0 | 0.0 | 0.00 | 0.00 | 0.00 | 100 | 1001.3 |
| 20260506004115 | 56 | 18 | 0.0 | 0.0 | 0.00 | 0.00 | 0.00 | 100 | 1001.4 |
| 20260506003115 | 56 | 40 | 0.0 | 0.0 | 0.00 | 0.00 | 0.00 | 100 | 1001.6 |
| 20260506002115 | 56 | 302 | 0.0 | 0.0 | 0.00 | 0.00 | 0.00 | 100 | 1001.6 |
| 20260506001115 | 56 | 302 | 0.0 | 0.0 | 0.00 | 0.00 | 0.00 | 100 | 1001.7 |
| 20260506000115 | 56 | 302 | 0.0 | 0.0 | 0.00 | 0.00 | 0.00 | 100 | 1001.7 |
| 20260505235115 | 56 | 302 | 0.0 | 0.0 | 0.00 | 0.00 | 0.00 | 100 | 1001.8 |
| 20260505234045 | 56 | 302 | 0.0 | 0.0 | 0.00 | 0.00 | 0.00 | 100 | 1001.8 |
| 20260505233045 | 57 | 221 | 0.0 | 0.0 | 0.00 | 0.00 | 0.00 | 100 | 1001.7 |
| 20260505232045 | 57 | 221 | 0.0 | 0.0 | 0.00 | 0.00 | 0.00 | 100 | 1001.7 |
| 20260505231044 | 57 | 328 | 0.0 | 0.0 | 0.00 | 0.00 | 0.00 | 100 | 1001.6 |
| 20260505230044 | 57 | 313 | 0.0 | 0.0 | 0.00 | 0.00 | 0.00 | 100 | 1001.4 |
| 20260505225044 | 58 | 253 | 0.0 | 0.0 | 0.00 | 0.00 | 0.00 | 100 | 1001.3 |
| 20260505224014 | 59 | 23 | 0.0 | 0.0 | 0.00 | 0.00 | 0.00 | 100 | 1001.1 |
| 20260505222944 | 59 | 23 | 0.0 | 0.0 | 0.00 | 0.00 | 0.00 | 100 | 1001.2 |
| 20260505221944 | 59 | 14 | 0.0 | 0.0 | 0.00 | 0.00 | 0.00 | 100 | 1001.6 |
| 20260505220944 | 59 | 0 | 0.0 | 0.0 | 0.00 | 0.00 | 0.00 | 100 | 1002.0 |
| 20260505215914 | 59 | 0 | 0.0 | 0.0 | 0.00 | 0.00 | 0.00 | 100 | 1002.5 |
| 20260505214914 | 59 | 11 | 0.0 | 0.0 | 0.00 | 0.00 | 0.00 | 100 | 1002.6 |
| 20260505213914 | 59 | 13 | 0.0 | 0.0 | 0.00 | 0.00 | 0.00 | 100 | 1002.4 |
| 20260505212843 | 59 | 13 | 0.0 | 0.0 | 0.00 | 0.00 | 0.00 | 100 | 1002.5 |
| 20260505211843 | 59 | 13 | 0.0 | 0.0 | 0.00 | 0.00 | 0.00 | 100 | 1002.5 |
| 20260505210813 | 59 | 13 | 0.0 | 0.0 | 0.00 | 0.00 | 0.00 | 100 | 1002.4 |
| 20260505205813 | 59 | 13 | 0.0 | 0.0 | 0.00 | 0.00 | 0.00 | 100 | 1002.3 |
| 20260505204813 | 59 | 13 | 0.0 | 0.0 | 0.00 | 0.00 | 0.00 | 100 | 1002.2 |
| 20260505203804 | 62 | 84 | 0.0 | 0.0 | 0.00 | 0.00 | 0.00 | 100 | 1010.4 |